Home   Weather   Nikšić   Past weeks

Flag for Montenegro Past Weather in Nikšić, Montenegro — Yesterday and Last 2 Weeks

57 °F

Passing clouds.

Feels Like: 57 °F
Forecast: 36 / 71 °F
Wind: 2 mph from North

Location: Podgorica Titograd

Current Time: Oct 24, 2016 at 3:39:45 AM

Latest Report: Oct 24, 2016 at 3:00 AM

Visibility: N/A

Pressure: 30.21 "Hg (28.01 "Hg at 635m altitude)

Humidity: 94%

Dew Point: 55 °F

Location of NikšićLocation

Past Weather in Nikšić — Graph


Nikšić Temperature Yesterday

Maximum temperature yesterday: 70 °F (at 4:00 PM)
Minimum temperature yesterday: 55 °F (at 4:30 AM)
Average temperature yesterday: 61 °F

High & Low Weather Summary for the Past Weeks

High77 °F (Oct 14, 3:00 PM)100% (Oct 9, 8:30 PM)32.55 "Hg (Oct 9, 8:30 PM)
Low48 °F (Oct 13, 2:30 AM)22% (Oct 14, 2:00 PM)29.65 "Hg (Oct 12, 2:30 AM)
Average60 °F84%30.04 "Hg
* Reported Oct 9 2:00 AM — Oct 24 2:30 AM, Nikšić, Weather by CustomWeather, © 2016

Note: Actual official high and low records may vary slightly from our data, if they occured in-between our weather recording intervals... More about our weather records


Nikšić Weather History for the Previous 24 Hours

Scroll right to see more
Time TempWeatherWind HumidityBarometerVisibility
2:30 AM
Mon, Oct 24
57 °FPassing clouds.2 mph100%30.18 "HgN/A
2:00 AM57 °FPassing clouds.2 mph100%30.18 "HgN/A
1:30 AM57 °FPassing clouds.2 mph94%30.18 "HgN/A
1:00 AM57 °FPassing clouds.3 mph100%30.18 "HgN/A
12:30 AM57 °FPassing clouds.2 mph100%30.18 "Hg5 mi
12:00 AM57 °FPassing clouds.2 mph100%30.18 "Hg5 mi
11:30 PM
Sun, Oct 23
57 °FPassing clouds.2 mph100%30.15 "Hg5 mi
11:00 PM57 °FPassing clouds.3 mph100%30.15 "Hg5 mi
10:30 PM59 °FPassing clouds.2 mph100%30.15 "HgN/A
10:00 PM57 °FPassing clouds.1 mph100%30.15 "HgN/A
9:30 PM59 °FPassing clouds.1 mph94%30.15 "HgN/A
9:00 PM61 °FPassing clouds.2 mph94%30.12 "HgN/A
8:30 PM63 °FPassing clouds.1 mph83%30.12 "HgN/A
8:00 PM63 °FPassing clouds.1 mph83%30.12 "HgN/A
7:30 PM63 °FPassing clouds.1 mph83%30.12 "HgN/A
7:00 PM64 °FPassing clouds.1 mph78%30.12 "HgN/A
6:30 PM64 °FPartly cloudy.1 mph78%30.12 "HgN/A
6:00 PM64 °FPartly cloudy.2 mph83%30.09 "HgN/A
5:30 PM68 °FBroken clouds.3 mph73%30.09 "HgN/A
5:00 PM70 °FBroken clouds.2 mph64%30.09 "HgN/A
4:30 PM70 °FBroken clouds.2 mph64%30.09 "HgN/A
4:00 PM70 °FBroken clouds.2 mph64%30.09 "HgN/A
3:30 PM68 °FBroken clouds.2 mph69%30.09 "HgN/A
3:00 PM68 °FBroken clouds.2 mph69%30.09 "HgN/A
2:30 PM68 °FBroken clouds.2 mph69%30.09 "HgN/A
2:00 PM66 °FBroken clouds.2 mph73%30.09 "HgN/A
1:30 PM66 °FBroken clouds.1 mph73%30.09 "HgN/A
1:00 PM66 °FBroken clouds.5 mph73%30.09 "HgN/A
12:30 PM68 °FBroken clouds.3 mph64%30.12 "HgN/A
12:00 PM68 °FBroken clouds.2 mph64%30.12 "HgN/A
11:30 AM64 °FBroken clouds.2 mph68%30.12 "HgN/A
11:00 AM64 °FBroken clouds.2 mph68%30.12 "HgN/A
10:30 AM63 °FBroken clouds.2 mph73%30.09 "HgN/A
10:00 AM63 °FBroken clouds.2 mph73%30.09 "HgN/A
9:30 AM63 °FBroken clouds.2 mph73%30.09 "HgN/A
9:00 AM61 °FBroken clouds.2 mph77%30.07 "HgN/A
8:00 AM57 °FBroken clouds.2 mph88%30.07 "HgN/A
7:30 AM55 °FScattered clouds.3 mph94%30.07 "HgN/A
7:00 AM55 °FPartly cloudy.3 mph94%30.07 "HgN/A
6:30 AM55 °FPassing clouds.2 mph94%30.07 "HgN/A
6:00 AM57 °FPassing clouds.1 mph88%30.07 "HgN/A
5:30 AM55 °FPassing clouds.3 mph94%30.07 "HgN/A
5:00 AM57 °FPassing clouds.1 mph88%30.07 "HgN/A
4:30 AM55 °FPassing clouds.3 mph94%30.07 "HgN/A
4:00 AM57 °FPassing clouds.5 mph88%30.07 "HgN/A
3:30 AM57 °FMostly cloudy.5 mph88%30.07 "HgN/A
3:00 AM57 °FMostly cloudy.5 mph94%30.07 "HgN/A
Weather by CustomWeather, © 2016

See weather overviewHow to use our weather pages